Time,TemperatureF,DewpointF,PressureIn,WindDirection,WindDirectionDegrees,WindSpeedMPH,WindSpeedGustMPH,Humidity,HourlyPrecipIn,Conditions,Clouds,dailyrainin,SolarRadiationWatts/m^2,SoftwareType,DateUTC
2013-02-07 00:02:00,29.0,23.0,-100.00,ENE,61,1.0,4.0,79,-99.99,,,0.00,0.000000,,2013-02-07 05:02:00,
2013-02-07 00:22:00,29.0,24.0,-100.00,ENE,74,2.0,4.0,80,0.00,,,0.00,0.000000,,2013-02-07 05:22:00,
2013-02-07 00:32:00,29.0,24.0,-100.00,ENE,74,2.0,4.0,80,0.00,,,0.00,0.000000,,2013-02-07 05:32:00,
2013-02-07 00:43:00,29.0,24.0,-100.00,ENE,74,2.0,4.0,80,0.00,,,0.00,0.000000,,2013-02-07 05:43:00,
2013-02-07 00:52:00,29.0,24.0,-100.00,ENE,74,2.0,4.0,80,0.00,,,0.00,0.000000,,2013-02-07 05:52:00,
2013-02-07 01:02:00,29.0,24.0,-100.00,ENE,74,2.0,4.0,80,0.00,,,0.00,0.000000,,2013-02-07 06:02:00,
2013-02-07 01:32:00,29.0,24.0,-100.00,ENE,67,2.0,3.0,81,0.00,,,0.00,0.000000,,2013-02-07 06:32:00,
2013-02-07 01:43:00,29.0,24.0,-100.00,ENE,67,2.0,3.0,81,0.00,,,0.00,0.000000,,2013-02-07 06:43:00,
2013-02-07 01:52:00,29.0,24.0,-100.00,ENE,67,2.0,3.0,81,0.00,,,0.00,0.000000,,2013-02-07 06:52:00,
2013-02-07 02:02:00,29.0,24.0,-100.00,ENE,67,2.0,3.0,81,0.00,,,0.00,0.000000,,2013-02-07 07:02:00,
2013-02-07 02:32:00,29.0,24.0,-100.00,NE,55,2.0,3.0,82,-99.99,,,0.00,0.000000,,2013-02-07 07:32:00,
2013-02-07 02:42:00,29.0,24.0,-100.00,NE,55,2.0,3.0,82,-99.99,,,0.00,0.000000,,2013-02-07 07:42:00,
2013-02-07 02:52:00,29.0,24.0,-100.00,NE,55,2.0,3.0,82,-99.99,,,0.00,0.000000,,2013-02-07 07:52:00,
2013-02-07 03:32:00,29.0,25.0,-100.00,NNE,12,2.0,4.0,83,-99.99,,,0.00,0.000000,,2013-02-07 08:32:00,
2013-02-07 03:42:00,29.0,25.0,-100.00,NNE,12,2.0,4.0,83,-99.99,,,0.00,0.000000,,2013-02-07 08:42:00,
2013-02-07 03:52:00,29.0,25.0,-100.00,NNE,12,2.0,4.0,83,-99.99,,,0.00,0.000000,,2013-02-07 08:52:00,
2013-02-07 04:32:00,30.0,25.0,-100.00,East,84,2.0,4.0,80,-99.99,,,0.00,0.000000,,2013-02-07 09:32:00,
2013-02-07 04:42:00,30.0,25.0,-100.00,East,84,2.0,4.0,80,-99.99,,,0.00,0.000000,,2013-02-07 09:42:00,
2013-02-07 04:52:00,30.0,25.0,-100.00,East,84,2.0,4.0,80,-99.99,,,0.00,0.000000,,2013-02-07 09:52:00,
2013-02-07 05:22:00,30.0,25.0,-100.00,East,81,0.0,4.0,81,-99.99,,,0.00,0.000000,,2013-02-07 10:22:00,
2013-02-07 05:32:00,30.0,25.0,-100.00,East,81,0.0,4.0,81,-99.99,,,0.00,0.000000,,2013-02-07 10:32:00,
2013-02-07 05:42:00,30.0,25.0,-100.00,East,81,0.0,4.0,81,-99.99,,,0.00,0.000000,,2013-02-07 10:42:00,
2013-02-07 05:52:00,30.0,25.0,-100.00,East,81,0.0,4.0,81,-99.99,,,0.00,0.000000,,2013-02-07 10:52:00,
2013-02-07 06:32:00,31.0,26.0,-100.00,ENE,72,2.0,3.0,81,-99.99,,,0.00,0.000000,,2013-02-07 11:32:00,
2013-02-07 06:44:00,31.0,26.0,-100.00,ENE,72,2.0,3.0,81,-99.99,,,0.00,0.000000,,2013-02-07 11:44:00,
2013-02-07 06:53:00,31.0,26.0,-100.00,ENE,72,2.0,3.0,81,-99.99,,,0.00,0.000000,,2013-02-07 11:53:00,
2013-02-07 07:02:00,31.0,26.0,-100.00,ENE,72,2.0,3.0,81,-99.99,,,0.00,0.000000,,2013-02-07 12:02:00,
2013-02-07 07:33:00,31.0,25.0,-100.00,NNE,17,1.0,3.0,79,0.00,,,0.00,0.000000,,2013-02-07 12:33:00,
2013-02-07 07:42:00,31.0,25.0,-100.00,NNE,17,1.0,3.0,79,0.00,,,0.00,0.000000,,2013-02-07 12:42:00,
2013-02-07 07:53:00,31.0,25.0,-100.00,NNE,17,1.0,3.0,79,0.00,,,0.00,0.000000,,2013-02-07 12:53:00,
2013-02-07 08:03:00,31.0,25.0,-100.00,NNE,17,1.0,3.0,79,0.00,,,0.00,0.000000,,2013-02-07 13:03:00,
2013-02-07 08:32:00,32.0,26.0,-100.00,East,88,2.0,3.0,79,0.00,,,0.00,5.000000,,2013-02-07 13:32:00,
2013-02-07 08:42:00,32.0,26.0,-100.00,East,88,2.0,3.0,79,0.00,,,0.00,5.000000,,2013-02-07 13:42:00,
2013-02-07 08:52:00,32.0,26.0,-100.00,East,88,2.0,3.0,79,0.00,,,0.00,5.000000,,2013-02-07 13:52:00,
2013-02-07 09:02:00,32.0,26.0,-100.00,East,88,2.0,3.0,79,0.00,,,0.00,5.000000,,2013-02-07 14:02:00,
2013-02-07 09:32:00,35.0,29.0,-100.00,NNE,30,2.0,4.0,77,0.00,,,0.00,37.000000,,2013-02-07 14:32:00,
2013-02-07 09:42:00,35.0,29.0,-100.00,NNE,30,2.0,4.0,77,0.00,,,0.00,37.000000,,2013-02-07 14:42:00,
2013-02-07 09:52:00,35.0,29.0,-100.00,NNE,30,2.0,4.0,77,0.00,,,0.00,37.000000,,2013-02-07 14:52:00,
2013-02-07 10:02:00,35.0,29.0,-100.00,NNE,30,2.0,4.0,77,0.00,,,0.00,37.000000,,2013-02-07 15:02:00,
2013-02-07 10:22:00,39.0,27.0,-100.00,East,87,3.0,4.0,63,0.00,,,0.00,87.000000,,2013-02-07 15:22:00,
2013-02-07 10:32:00,39.0,27.0,-100.00,East,87,3.0,4.0,63,0.00,,,0.00,87.000000,,2013-02-07 15:32:00,
2013-02-07 10:42:00,39.0,27.0,-100.00,East,87,3.0,4.0,63,0.00,,,0.00,87.000000,,2013-02-07 15:42:00,
2013-02-07 10:52:00,39.0,27.0,-100.00,East,87,3.0,4.0,63,0.00,,,0.00,87.000000,,2013-02-07 15:52:00,
2013-02-07 11:01:00,39.0,27.0,-100.00,East,87,3.0,4.0,63,0.00,,,0.00,87.000000,,2013-02-07 16:01:00,
2013-02-07 11:32:00,42.0,25.0,-100.00,ENE,66,2.0,6.0,51,0.00,,,0.00,100.000000,,2013-02-07 16:32:00,
2013-02-07 11:42:00,42.0,25.0,-100.00,ENE,66,2.0,6.0,51,0.00,,,0.00,100.000000,,2013-02-07 16:42:00,
2013-02-07 11:52:00,42.0,25.0,-100.00,ENE,66,2.0,6.0,51,0.00,,,0.00,100.000000,,2013-02-07 16:52:00,
2013-02-07 12:01:00,42.0,25.0,-100.00,ENE,66,2.0,6.0,51,0.00,,,0.00,100.000000,,2013-02-07 17:01:00,
2013-02-07 12:32:00,41.0,32.0,-100.00,NE,40,2.0,7.0,71,0.00,,,0.00,86.000000,,2013-02-07 17:32:00,
2013-02-07 12:43:00,41.0,32.0,-100.00,NE,40,2.0,7.0,71,0.00,,,0.00,86.000000,,2013-02-07 17:43:00,
2013-02-07 12:52:00,41.0,32.0,-100.00,NE,40,2.0,7.0,71,0.00,,,0.00,86.000000,,2013-02-07 17:52:00,
2013-02-07 13:02:00,41.0,32.0,-100.00,NE,40,2.0,7.0,71,0.00,,,0.00,86.000000,,2013-02-07 18:02:00,
2013-02-07 13:23:00,39.0,36.0,-100.00,NE,56,2.0,4.0,88,0.06,,,0.06,86.000000,,2013-02-07 18:23:00,
2013-02-07 13:32:00,39.0,36.0,-100.00,NE,56,2.0,4.0,88,0.06,,,0.06,86.000000,,2013-02-07 18:32:00,
2013-02-07 13:42:00,39.0,36.0,-100.00,NE,56,2.0,4.0,88,0.06,,,0.06,86.000000,,2013-02-07 18:42:00,
2013-02-07 13:52:00,39.0,36.0,-100.00,NE,56,2.0,4.0,88,0.06,,,0.06,86.000000,,2013-02-07 18:52:00,
2013-02-07 14:01:00,39.0,36.0,-100.00,NE,56,2.0,4.0,88,0.06,,,0.06,86.000000,,2013-02-07 19:01:00,
2013-02-07 14:32:00,39.0,37.0,-100.00,ESE,123,1.0,4.0,91,0.05,,,0.11,63.000000,,2013-02-07 19:32:00,
2013-02-07 14:42:00,39.0,37.0,-100.00,ESE,123,1.0,4.0,91,0.05,,,0.11,63.000000,,2013-02-07 19:42:00,
2013-02-07 14:52:00,39.0,37.0,-100.00,ESE,123,1.0,4.0,91,0.05,,,0.11,63.000000,,2013-02-07 19:52:00,
2013-02-07 15:01:00,39.0,37.0,-100.00,ESE,123,1.0,4.0,91,0.05,,,0.11,63.000000,,2013-02-07 20:01:00,
2013-02-07 15:22:00,39.0,37.0,-100.00,North,11,2.0,4.0,94,0.02,,,0.13,47.000000,,2013-02-07 20:22:00,
2013-02-07 15:32:00,39.0,37.0,-100.00,North,11,2.0,4.0,94,0.02,,,0.13,47.000000,,2013-02-07 20:32:00,
2013-02-07 15:42:00,39.0,37.0,-100.00,North,11,2.0,4.0,94,0.02,,,0.13,47.000000,,2013-02-07 20:42:00,
2013-02-07 15:52:00,39.0,37.0,-100.00,North,11,2.0,4.0,94,0.02,,,0.13,47.000000,,2013-02-07 20:52:00,
2013-02-07 16:02:00,39.0,37.0,-100.00,North,11,2.0,4.0,94,0.02,,,0.13,47.000000,,2013-02-07 21:02:00,
2013-02-07 16:32:00,39.0,37.0,-100.00,North,6,2.0,7.0,94,0.04,,,0.17,32.000000,,2013-02-07 21:32:00,
2013-02-07 16:42:00,39.0,37.0,-100.00,North,6,2.0,7.0,94,0.04,,,0.17,32.000000,,2013-02-07 21:42:00,
2013-02-07 16:52:00,39.0,37.0,-100.00,North,6,2.0,7.0,94,0.04,,,0.17,32.000000,,2013-02-07 21:52:00,
2013-02-07 17:02:00,39.0,37.0,-100.00,North,6,2.0,7.0,94,0.04,,,0.17,32.000000,,2013-02-07 22:02:00,
2013-02-07 17:32:00,39.0,38.0,-100.00,ENE,67,2.0,6.0,96,0.08,,,0.25,14.000000,,2013-02-07 22:32:00,
2013-02-07 17:42:00,39.0,38.0,-100.00,ENE,67,2.0,6.0,96,0.08,,,0.25,14.000000,,2013-02-07 22:42:00,
2013-02-07 17:52:00,39.0,38.0,-100.00,ENE,67,2.0,6.0,96,0.08,,,0.25,14.000000,,2013-02-07 22:52:00,
2013-02-07 18:02:00,39.0,38.0,-100.00,ENE,67,2.0,6.0,96,0.08,,,0.25,14.000000,,2013-02-07 23:02:00,
2013-02-07 18:32:00,39.0,38.0,-100.00,NNE,15,2.0,5.0,97,0.09,,,0.34,4.000000,,2013-02-07 23:32:00,
2013-02-07 18:42:00,39.0,38.0,-100.00,NNE,15,2.0,5.0,97,0.09,,,0.34,4.000000,,2013-02-07 23:42:00,
2013-02-07 18:52:00,39.0,38.0,-100.00,NNE,15,2.0,5.0,97,0.09,,,0.34,4.000000,,2013-02-07 23:52:00,
2013-02-07 19:02:00,39.0,38.0,-100.00,NNE,15,2.0,5.0,97,0.09,,,0.34,4.000000,,2013-02-08 00:02:00,
2013-02-07 19:32:00,39.0,38.0,-100.00,East,91,3.0,5.0,97,0.04,,,0.38,0.000000,,2013-02-08 00:32:00,
2013-02-07 19:42:00,39.0,38.0,-100.00,East,91,3.0,5.0,97,0.04,,,0.38,0.000000,,2013-02-08 00:42:00,
2013-02-07 19:52:00,39.0,38.0,-100.00,East,91,3.0,5.0,97,0.04,,,0.38,0.000000,,2013-02-08 00:52:00,
2013-02-07 20:01:00,39.0,38.0,-100.00,East,91,3.0,5.0,97,0.04,,,0.38,0.000000,,2013-02-08 01:01:00,
2013-02-07 21:22:00,39.0,38.0,-100.00,East,92,3.0,6.0,97,-99.99,,,0.46,0.000000,,2013-02-08 02:22:00,
2013-02-07 21:32:00,39.0,38.0,-100.00,East,92,3.0,6.0,97,-99.99,,,0.46,0.000000,,2013-02-08 02:32:00,
2013-02-07 21:42:00,39.0,38.0,-100.00,East,92,3.0,6.0,97,-99.99,,,0.46,0.000000,,2013-02-08 02:42:00,
2013-02-07 21:52:00,39.0,38.0,-100.00,East,92,3.0,6.0,97,-99.99,,,0.46,0.000000,,2013-02-08 02:52:00,
2013-02-07 22:02:00,39.0,38.0,-100.00,East,92,3.0,6.0,97,-99.99,,,0.46,0.000000,,2013-02-08 03:02:00,
2013-02-07 22:23:00,39.0,38.0,-100.00,NE,49,3.0,6.0,97,0.01,,,0.47,0.000000,,2013-02-08 03:23:00,
2013-02-07 22:32:00,39.0,38.0,-100.00,NE,49,3.0,6.0,97,0.01,,,0.47,0.000000,,2013-02-08 03:32:00,
2013-02-07 22:42:00,39.0,38.0,-100.00,NE,49,3.0,6.0,97,0.01,,,0.47,0.000000,,2013-02-08 03:42:00,
2013-02-07 22:52:00,39.0,38.0,-100.00,NE,49,3.0,6.0,97,0.01,,,0.47,0.000000,,2013-02-08 03:52:00,
2013-02-07 23:02:00,39.0,38.0,-100.00,NE,49,3.0,6.0,97,0.01,,,0.47,0.000000,,2013-02-08 04:02:00,
2013-02-07 23:32:00,39.0,38.0,-100.00,NNW,348,2.0,5.0,97,0.00,,,0.47,0.000000,,2013-02-08 04:32:00,
2013-02-07 23:42:00,39.0,38.0,-100.00,NNW,348,2.0,5.0,97,0.00,,,0.47,0.000000,,2013-02-08 04:42:00,
2013-02-07 23:52:00,39.0,38.0,-100.00,NNW,348,2.0,5.0,97,0.00,,,0.47,0.000000,,2013-02-08 04:52:00,